| time (UTC) | temp C | wind direction | speed KPH | gust KPH | rain 1hr cm | rain 24hr cm | rain mn cm | humidity % | barometer mb |
| 20260901080055 | 12 | 139 | 11.3 | 16.1 | 0.00 | 0.00 | 0.00 | 66 | 1010.6 |
| 20260901074538 | 12 | 134 | 11.3 | 12.9 | 0.00 | 0.00 | 0.00 | 66 | 1010.6 |
| 20260901073038 | 11 | 128 | 11.3 | 12.9 | 0.00 | 0.00 | 0.00 | 67 | 1010.8 |
| 20260901071518 | 12 | 125 | 9.7 | 14.5 | 0.00 | 0.00 | 0.00 | 61 | 1010.7 |
| 20260901070017 | 12 | 129 | 11.3 | 16.1 | 0.00 | 0.00 | 0.00 | 66 | 1010.6 |
| 20260901064557 | 11 | 102 | 4.8 | 9.7 | 0.00 | 0.00 | 0.00 | 61 | 1010.8 |
| 20260901063106 | 12 | 119 | 11.3 | 12.9 | 0.00 | 0.00 | 0.00 | 64 | 1010.7 |
| 20260901061543 | 13 | 130 | 9.7 | 14.5 | 0.00 | 0.00 | 0.00 | 60 | 1010.8 |
| 20260901060035 | 12 | 115 | 6.4 | 8.0 | 0.00 | 0.00 | 0.00 | 62 | 1010.9 |
| 20260901054514 | 12 | 115 | 8.0 | 12.9 | 0.00 | 0.00 | 0.00 | 60 | 1010.9 |
| 20260901053016 | 14 | 125 | 11.3 | 16.1 | 0.00 | 0.00 | 0.00 | 57 | 1011.0 |
| 20260901051552 | 15 | 134 | 14.5 | 16.1 | 0.00 | 0.00 | 0.00 | 54 | 1011.1 |
| 20260901050052 | 15 | 137 | 14.5 | 19.3 | 0.00 | 0.00 | 0.00 | 53 | 1011.1 |
| 20260901044534 | 15 | 133 | 14.5 | 17.7 | 0.00 | 0.00 | 0.00 | 52 | 1011.2 |
| 20260901043037 | 15 | 119 | 12.9 | 16.1 | 0.00 | 0.00 | 0.00 | 50 | 1011.2 |
| 20260901041516 | 14 | 103 | 9.7 | 14.5 | 0.00 | 0.00 | 0.00 | 50 | 1011.3 |
| 20260901040017 | 13 | 98 | 8.0 | 11.3 | 0.00 | 0.00 | 0.00 | 50 | 1011.2 |
| 20260901034553 | 15 | 92 | 11.3 | 14.5 | 0.00 | 0.00 | 0.00 | 46 | 1011.2 |
| 20260901033051 | 16 | 98 | 9.7 | 12.9 | 0.00 | 0.00 | 0.00 | 45 | 1011.1 |
| 20260901031532 | 16 | 91 | 11.3 | 12.9 | 0.00 | 0.00 | 0.00 | 47 | 1010.8 |
| 20260901030028 | 16 | 76 | 3.2 | 8.0 | 0.00 | 0.00 | 0.00 | 45 | 1010.8 |
| 20260901024508 | 17 | 60 | 3.2 | 6.4 | 0.00 | 0.00 | 0.00 | 44 | 1010.7 |
| 20260901023003 | 17 | 232 | 4.8 | 8.0 | 0.00 | 0.00 | 0.00 | 42 | 1010.7 |
| 20260901021545 | 19 | 232 | 3.2 | 6.4 | 0.00 | 0.00 | 0.00 | 38 | 1010.6 |
| 20260901020049 | 21 | 232 | 3.2 | 4.8 | 0.00 | 0.00 | 0.00 | 34 | 1010.7 |
| 20260901014530 | 23 | 232 | 1.6 | 3.2 | 0.00 | 0.00 | 0.00 | 32 | 1010.7 |
| 20260901013029 | 23 | 232 | 0.0 | 1.6 | 0.00 | 0.00 | 0.00 | 31 | 1010.8 |
| 20260901011526 | 23 | 232 | 0.0 | 6.4 | 0.00 | 0.00 | 0.00 | 31 | 1010.8 |
| 20260901010026 | 23 | 284 | 4.8 | 12.9 | 0.00 | 0.00 | 0.00 | 31 | 1010.9 |
| 20260901004525 | 23 | 236 | 6.4 | 12.9 | 0.00 | 0.00 | 0.00 | 31 | 1011.0 |
| 20260901003025 | 23 | 240 | 9.7 | 14.5 | 0.00 | 0.00 | 0.00 | 31 | 1011.1 |
| 20260901001524 | 24 | 223 | 9.7 | 14.5 | 0.00 | 0.00 | 0.00 | 31 | 1011.0 |
| 20260901000022 | 23 | 281 | 8.0 | 17.7 | 0.00 | 0.00 | 0.00 | 32 | 1010.9 |
| 20260831234506 | 24 | 258 | 6.4 | 16.1 | 0.00 | 0.00 | 0.00 | 32 | 1011.0 |
| 20260831233004 | 23 | 224 | 3.2 | 12.9 | 0.00 | 0.00 | 0.00 | 32 | 1011.1 |
| 20260831231550 | 23 | 303 | 12.9 | 17.7 | 0.00 | 0.00 | 0.00 | 33 | 1011.1 |
| 20260831230043 | 23 | 232 | 8.0 | 22.5 | 0.00 | 0.00 | 0.00 | 33 | 1011.1 |
| 20260831224523 | 23 | 238 | 11.3 | 17.7 | 0.00 | 0.00 | 0.00 | 33 | 1011.2 |
| 20260831223022 | 23 | 321 | 11.3 | 19.3 | 0.00 | 0.00 | 0.00 | 34 | 1011.3 |
| 20260831221504 | 23 | 178 | 12.9 | 29.0 | 0.00 | 0.00 | 0.00 | 34 | 1011.5 |
| 20260831220003 | 23 | 219 | 11.3 | 20.9 | 0.00 | 0.00 | 0.00 | 35 | 1011.3 |
| 20260831214545 | 23 | 225 | 11.3 | 24.1 | 0.00 | 0.00 | 0.00 | 35 | 1011.3 |
| 20260831213043 | 23 | 216 | 16.1 | 22.5 | 0.00 | 0.00 | 0.00 | 35 | 1011.4 |
| 20260831211532 | 23 | 285 | 11.3 | 19.3 | 0.00 | 0.00 | 0.00 | 36 | 1011.4 |
| 20260831210033 | 23 | 243 | 12.9 | 20.9 | 0.00 | 0.00 | 0.00 | 36 | 1011.5 |
| 20260831204529 | 22 | 181 | 9.7 | 27.4 | 0.00 | 0.00 | 0.00 | 37 | 1011.7 |
| 20260831203026 | 22 | 235 | 16.1 | 27.4 | 0.00 | 0.00 | 0.00 | 37 | 1011.8 |
| 20260831201528 | 22 | 243 | 4.8 | 19.3 | 0.00 | 0.00 | 0.00 | 38 | 1011.8 |
| 20260831200029 | 22 | 245 | 17.7 | 30.6 | 0.00 | 0.00 | 0.00 | 38 | 1011.9 |
| 20260831194528 | 22 | 296 | 16.1 | 27.4 | 0.00 | 0.00 | 0.00 | 38 | 1011.9 |
| 20260831193019 | 22 | 282 | 12.9 | 27.4 | 0.00 | 0.00 | 0.00 | 38 | 1012.1 |
| 20260831191600 | 21 | 268 | 17.7 | 27.4 | 0.00 | 0.00 | 0.00 | 39 | 1012.2 |
| 20260831190114 | 22 | 246 | 14.5 | 25.7 | 0.00 | 0.00 | 0.00 | 40 | 1012.4 |
| 20260831184539 | 21 | 240 | 11.3 | 25.7 | 0.00 | 0.00 | 0.00 | 41 | 1012.5 |
| 20260831183037 | 21 | 310 | 17.7 | 25.7 | 0.00 | 0.00 | 0.00 | 41 | 1012.8 |
| 20260831181518 | 21 | 256 | 16.1 | 29.0 | 0.00 | 0.00 | 0.00 | 42 | 1012.7 |
| 20260831180015 | 21 | 296 | 11.3 | 27.4 | 0.00 | 0.00 | 0.00 | 42 | 1012.8 |
| 20260831174614 | 20 | 285 | 16.1 | 25.7 | 0.00 | 0.00 | 0.00 | 44 | 1012.8 |
| 20260831173058 | 20 | 312 | 19.3 | 32.2 | 0.00 | 0.00 | 0.00 | 45 | 1012.8 |
| 20260831171553 | 20 | 323 | 12.9 | 25.7 | 0.00 | 0.00 | 0.00 | 47 | 1012.8 |
| 20260831170035 | 19 | 318 | 14.5 | 27.4 | 0.00 | 0.00 | 0.00 | 47 | 1012.9 |
| 20260831164531 | 19 | 295 | 20.9 | 29.0 | 0.00 | 0.00 | 0.00 | 47 | 1013.0 |
| 20260831163010 | 18 | 333 | 16.1 | 32.2 | 0.00 | 0.00 | 0.00 | 49 | 1012.9 |
| 20260831161510 | 18 | 300 | 20.9 | 35.4 | 0.00 | 0.00 | 0.00 | 48 | 1012.9 |
| 20260831160058 | 17 | 319 | 17.7 | 33.8 | 0.00 | 0.00 | 0.00 | 49 | 1012.9 |
| 20260831154617 | 17 | 281 | 24.1 | 33.8 | 0.00 | 0.00 | 0.00 | 49 | 1012.8 |
| 20260831153033 | 17 | 287 | 24.1 | 35.4 | 0.00 | 0.00 | 0.00 | 50 | 1012.8 |
| 20260831151534 | 16 | 284 | 29.0 | 38.6 | 0.00 | 0.00 | 0.00 | 50 | 1012.7 |
| 20260831150016 | 16 | 298 | 27.4 | 37.0 | 0.00 | 0.00 | 0.00 | 51 | 1012.6 |
| 20260831144511 | 15 | 284 | 22.5 | 35.4 | 0.00 | 0.00 | 0.00 | 55 | 1012.3 |
| 20260831143110 | 13 | 313 | 22.5 | 30.6 | 0.00 | 0.00 | 0.00 | 60 | 1012.2 |
| 20260831141611 | 12 | 292 | 20.9 | 29.0 | 0.00 | 0.00 | 0.00 | 65 | 1012.0 |
| 20260831140041 | 11 | 304 | 20.9 | 27.4 | 0.00 | 0.00 | 0.00 | 69 | 1012.0 |
| 20260831134536 | 10 | 284 | 19.3 | 24.1 | 0.00 | 0.00 | 0.00 | 74 | 1011.9 |
| 20260831133021 | 8 | 263 | 14.5 | 20.9 | 0.00 | 0.00 | 0.00 | 77 | 1011.8 |
| 20260831131512 | 8 | 258 | 17.7 | 25.7 | 0.00 | 0.00 | 0.00 | 77 | 1011.5 |
| 20260831130056 | 8 | 281 | 19.3 | 25.7 | 0.00 | 0.00 | 0.00 | 79 | 1011.3 |
| 20260831124559 | 8 | 246 | 16.1 | 22.5 | 0.00 | 0.00 | 0.00 | 76 | 1011.3 |
| 20260831123031 | 8 | 275 | 17.7 | 22.5 | 0.00 | 0.00 | 0.00 | 77 | 1011.1 |
| 20260831121530 | 8 | 261 | 16.1 | 22.5 | 0.00 | 0.00 | 0.00 | 76 | 1011.0 |
| 20260831120013 | 8 | 259 | 16.1 | 24.1 | 0.00 | 0.00 | 0.00 | 76 | 1010.9 |
| 20260831114512 | 8 | 255 | 20.9 | 24.1 | 0.00 | 0.00 | 0.00 | 77 | 1010.9 |
| 20260831113055 | 8 | 261 | 19.3 | 25.7 | 0.00 | 0.00 | 0.00 | 76 | 1010.8 |
| 20260831111555 | 7 | 257 | 16.1 | 19.3 | 0.00 | 0.00 | 0.00 | 78 | 1010.9 |
| 20260831110037 | 8 | 256 | 17.7 | 27.4 | 0.00 | 0.00 | 0.00 | 77 | 1010.7 |
| 20260831104533 | 8 | 264 | 19.3 | 24.1 | 0.00 | 0.00 | 0.00 | 76 | 1010.4 |
| 20260831103014 | 8 | 254 | 20.9 | 25.7 | 0.00 | 0.00 | 0.00 | 75 | 1010.4 |
| 20260831101511 | 8 | 249 | 14.5 | 19.3 | 0.00 | 0.00 | 0.00 | 75 | 1010.3 |
| 20260831100059 | 8 | 251 | 12.9 | 17.7 | 0.00 | 0.00 | 0.00 | 74 | 1010.3 |
| 20260831094551 | 8 | 236 | 16.1 | 22.5 | 0.00 | 0.00 | 0.00 | 72 | 1010.2 |
| 20260831093032 | 9 | 248 | 17.7 | 25.7 | 0.00 | 0.00 | 0.00 | 71 | 1010.2 |
| 20260831091533 | 9 | 245 | 16.1 | 19.3 | 0.00 | 0.00 | 0.00 | 71 | 1010.3 |
| 20260831090014 | 8 | 232 | 12.9 | 17.7 | 0.00 | 0.00 | 0.00 | 72 | 1010.3 |
| 20260831084511 | 8 | 240 | 11.3 | 17.7 | 0.00 | 0.00 | 0.00 | 72 | 1009.9 |
| 20260831083053 | 9 | 229 | 16.1 | 19.3 | 0.00 | 0.08 | 0.00 | 70 | 1009.9 |
| 20260831081551 | 8 | 237 | 16.1 | 19.3 | 0.00 | 0.08 | 0.00 | 72 | 1009.8 |